Flag for Croatia Weather past 2 weeks in Dubrovnik, Croatia

Now
79 °F

Passing clouds.


Feels Like: 81 °F
Forecast: 71 / 85 °F
Wind: 3 mph from West

Location: Dubrovnik / Cilipi

Current Time: Jul 6, 2015 at 8:40:21 PM

Latest Report: Jul 6, 2015 at 8:00 PM


Visibility: N/A

Pressure: 30.04 "Hg

Humidity: 65%

Dew point: 66 °F

Location of DubrovnikLocation

Historic Weather in Dubrovnik — Graph

°F

Dubrovnik temperature yesterday

Maximum temperature yesterday: 86 °F (at 1:30 PM)
Minimum temperature yesterday: 75 °F (at 5:00 AM)
Average temperature yesterday: 81 °F

Past Weeks' High & Low Weather Summary

 TemperatureHumidityPressure
High88 °F (Jul 3, 7:30 PM)100% (Jun 24, 3:00 PM)30.21 "Hg (Jun 24, 3:00 PM)
Low59 °F (Jun 24, 3:00 PM)25% (Jul 3, 7:30 PM)29.92 "Hg (Jun 23, 5:30 PM)
Average75 °F48%30.05 "Hg
* Reported Jun 21 8:00 PM — Jul 6 7:30 PM, Dubrovnik, Weather by CustomWeather, © 2015

Note: Actual official high and low records may vary slightly from our data, if they occured in-between our weather recording intervals... More about our weather records

Advertising

Dubrovnik weather history for previous 24 hours

 ConditionsComfort  
Time TempWeatherWind HumidityBarometerVisibility
7:30 PM
Mon, Jul 6
81 °FPassing clouds.7 mph58%30.04 "HgN/A
7:00 PM81 °FPassing clouds.7 mph62%30.04 "HgN/A
6:30 PM81 °FPassing clouds.7 mph62%30.04 "HgN/A
6:00 PM81 °FPassing clouds.6 mph58%30.07 "HgN/A
5:30 PM82 °FPassing clouds.7 mph45%30.07 "HgN/A
5:00 PM82 °FPassing clouds.8 mph45%30.07 "HgN/A
4:30 PM84 °FPassing clouds.8 mph45%30.07 "HgN/A
4:00 PM82 °FPassing clouds.9 mph42%30.07 "HgN/A
3:30 PM84 °FPassing clouds.9 mph51%30.07 "HgN/A
3:00 PM84 °FPassing clouds.9 mph48%30.07 "HgN/A
2:30 PM86 °FPassing clouds.7 mph43%30.09 "HgN/A
2:00 PM84 °FSunny.6 mph43%30.09 "Hg10 mi
1:30 PM86 °FPassing clouds.7 mph40%30.09 "HgN/A
1:00 PM84 °FSunny.5 mph48%30.09 "Hg10 mi
12:30 PM84 °FPassing clouds.7 mph51%30.09 "HgN/A
12:00 PM84 °FPassing clouds.6 mph51%30.09 "HgN/A
11:30 AM82 °FPassing clouds.6 mph51%30.09 "HgN/A
11:00 AM82 °FPassing clouds.7 mph55%30.09 "HgN/A
10:30 AM82 °FPassing clouds.6 mph51%30.09 "HgN/A
10:00 AM82 °FSunny.3 mph55%30.09 "Hg10 mi
9:30 AM81 °FPassing clouds.3 mph62%30.09 "HgN/A
9:00 AM79 °FPassing clouds.6 mph65%30.09 "HgN/A
8:30 AM81 °FSunny.2 mph54%30.09 "Hg10 mi
8:00 AM81 °FSunny.No wind45%30.09 "Hg10 mi
7:30 AM79 °FSunny.5 mph45%30.09 "Hg10 mi
7:00 AM75 °FSunny.5 mph54%30.09 "Hg10 mi
6:30 AM73 °FSunny.6 mph57%30.09 "Hg10 mi
6:00 AM72 °FPassing clouds.6 mph61%30.07 "HgN/A
5:30 AM72 °FClear.7 mph57%30.07 "Hg10 mi
5:00 AM77 °FClear.7 mph44%30.07 "Hg10 mi
4:30 AM79 °FPassing clouds.7 mph42%30.07 "HgN/A
4:00 AM75 °FPassing clouds.6 mph47%30.07 "HgN/A
3:30 AM81 °FClear.2 mph39%30.07 "Hg10 mi
3:00 AM79 °FClear.5 mph42%30.07 "Hg10 mi
2:30 AM81 °FClear.3 mph37%30.07 "Hg10 mi
2:00 AM81 °FClear.2 mph37%30.07 "Hg10 mi
1:30 AM81 °FPassing clouds.5 mph37%30.07 "HgN/A
1:00 AM81 °FPassing clouds.9 mph37%30.07 "HgN/A
12:30 AM81 °FClear.2 mph37%30.07 "Hg10 mi
12:00 AM81 °FClear.5 mph37%30.07 "Hg10 mi
11:30 PM
Sun, Jul 5
77 °FPassing clouds.6 mph47%30.07 "HgN/A
11:00 PM77 °FClear.3 mph47%30.07 "Hg10 mi
10:30 PM79 °FPassing clouds.5 mph51%30.07 "HgN/A
10:00 PM75 °FPassing clouds.3 mph54%30.09 "HgN/A
9:30 PM75 °FPassing clouds.5 mph54%30.07 "HgN/A
9:00 PM77 °FSunny.7 mph51%30.07 "Hg10 mi
8:30 PM79 °FPassing clouds.5 mph48%30.07 "HgN/A
8:00 PM81 °FPassing clouds.5 mph39%30.07 "HgN/A
Weather by CustomWeather, © 2015

See weather overviewHow to use our weather pages